Location: *
(50.8512°N, 5.6907°E)
Time: 06:11:26
(UTC+00:00)

ALOS 2 - Pass Details

Date: 09 April 2020
Orbit: 630 x 632 km, 97.9° (Epoch: 29 May)

Event Time Altitude Azimuth Distance (km) Brightness Sun altitude
Exits shadow 22:37:15 38° 13° (NNE) 969 3.8 -29.6°
Drops below altitude 10° 22:40:11 10° 353° (N) 2,028 6.1 -29.8°
Sets 22:42:25 0° 350° (N) 2,940 7.2 -29.9°
